Regional Weather Roundup
Issued by NWS Mobile, AL

Home | Current Version | Previous Version | Text Only | Print | Product List | Glossary On
Versions: 1 2 3 4 5 6 7 8 9 10 11 12 13 14 15 16 17 18 19 20 21 22 23 24 25 26 27 28 29 30 31 32 33 34 35 36 37 38 39 40 41 42 43 44 45 46 47 48 49 50
000
ASUS44 KMOB 211110
RWRMOB
REGIONAL WEATHER ROUNDUP
NATIONAL WEATHER SERVICE MOBILE AL
500 AM CST SUN DEC 21 2014

NOTE: "FAIR" INDICATES FEW OR NO CLOUDS BELOW 12,000 FEET WITH NO
      SIGNIFICANT WEATHER AND/OR OBSTRUCTIONS TO VISIBILITY.

  * THESE STATIONS ARE PART OF THE UNIVERSITY OF SOUTH ALABAMA
    MESONET AND ARE NOT UNDER NWS OR FAA QUALITY CONTROL.

ALZ061>064-211200-
COASTAL ALABAMA

CITY           SKY/WX    TMP DP  RH WIND       PRES   REMARKS
MOBILE REG APT CLOUDY    49  47  93 N7        30.12S
BROOKLEY FIELD CLOUDY    52  49  89 N6        30.13S
USA CAMPUS*      N/A     50  48  93 N2        30.12S
DOG RIVER*     NOT AVBL


CITY           SKY/WX    TMP DP  RH WIND       PRES   REMARKS
MOUNT VERNON*    N/A     48  46  93 CALM      30.14S
SARALAND*      NOT AVBL
BAY MINETTE*   NOT AVBL
LOXLEY*          N/A     50  50 100 VRB6      30.11S
ROBERTSDALE*     N/A     50  50 100 NE2       30.11S
FAIRHOPE*        N/A     50  50 100 NE5       30.10F
ELBERTA*         N/A     52  50  93 N3        30.09F
FOLEY*           N/A     52  50  93 CALM      30.08R
GRAND BAY*       N/A     50  48  93 N5        30.10S
DAUPHIN ISLND* NOT AVBL
BON SCOUR NWR* NOT AVBL
GULF SHORES    CLOUDY    51  49  93 N3        30.10S

$$

ALZ051>060-211200-
INTERIOR SOUTHWEST AND SOUTH CENTRAL ALABAMA

CITY           SKY/WX    TMP DP  RH WIND       PRES   REMARKS
GREENVILLE     CLOUDY    51  48  89 NE6       30.12S FOG
EVERGREEN      CLOUDY    53  49  86 NE5       30.12S
CASTLEBERRY*   NOT AVBL
ATMORE*          N/A     50  50 100 VRB5      30.13S
DIXIE*           N/A     52  50  93 CALM      30.09R
ANDALUSIA/OPP  CLOUDY    56  50  80 E5        30.11S
ANDALUSIA*       N/A     52  50  93 NE6       30.11R
FLORALA APT    CLOUDY    54  50  86 NE7       30.12R
FLORALA*         N/A     52  50  93 CALM      30.08R

$$

FLZ001>006-211200-
WESTERN FLORIDA PANHANDLE

CITY           SKY/WX    TMP DP  RH WIND       PRES   REMARKS
PENSACOLA      CLOUDY    50  50 100 N6        30.09S
NAS PENSACOLA  NOT AVBL
MILTON         NOT AVBL
WHTNG S FIELD  CLOUDY    54  50  86 N6        30.10S


CITY           SKY/WX    TMP DP  RH WIND       PRES   REMARKS
WALNUT HILL*   NOT AVBL
JAY*             N/A     50  48  93 N5        30.11S
DUKE FIELD     CLOUDY    53  50  90 NE5       30.09S
CRESTVIEW      CLOUDY    53  50  89 NE3       30.11S
VALPARAISO     CLOUDY    54  51  89 NE9       30.08F
DESTIN         CLOUDY    55  52  89 VRB6      30.08S

$$

MSZ076-079-211200-
INTERIOR SOUTHEAST MISSISSIPPI

CITY           SKY/WX    TMP DP  RH WIND       PRES   REMARKS
LEAKESVILLE*   NOT AVBL
AGRICOLA*      NOT AVBL

$$

MARINE OBSERVATIONS

STATION/POSITION TIME  TEMP    WIND        PRES    WAVE
                       AIR SEA DIR/SP/G            HT/PER
                 (UTC) (F)     (DEG/KT/KT) (MB)    (FT/S)
PASCAGOULA       1100   51     360/  7/  9 1019.2S
PETIT BOIS ISLND 1100   53      30/ 12/ 15 1019.5R
GRAND BAY        1000   51      20/  6     1020.0S
KATRINA CUT      1000   53      40/ 13     1019.6F
CEDAR POINT      1000   51      30/ 12     1019.6F
E DAUPHIN ISLAND 1000   53      30/ 12/ 14 1019.1F
MIDDLE BAY LIGHT 1000   52      30/ 13     1019.0F
USCG MOBILE BAY  1100   51 59  360/  5/  6 1018.7S
STATE DOCKS      1100   51 58              1019.4S
MEAHER PARK      1000   51     360/  3     1020.0F
WEEKS BAY        1000   52                   N/A
FORT MORGAN      1100   53      40/ 14/ 16 1018.5S
12 S ORANGE BCH  1100   57 70   40/ 12/ 16 1018.0F   3/ 6
PENSACOLA BAY    1100   54 58   20/  3/  5 1019.3R
64 S DAUPHIN ISL 1100   63 74   40/ 17/ 19 1016.8F   5/ 6
67 S FORT MORGAN 1000   64      30/ 17     1017.3S

$$

SELECTED LOCATIONS ACROSS THE REGION

CITY           SKY/WX    TMP DP  RH WIND       PRES   REMARKS
NEW ORLEANS    CLOUDY    53  47  79 E8        30.10F
GULFPORT       CLOUDY    50  46  86 NE6       30.11S
PASCAGOULA AP  CLOUDY    51  48  89 N6        30.11S
PASCAGOULA*      N/A     50  48  93 VRB6      30.11S
HATTIESBURG    PTCLDY    46  42  86 CALM      30.14S
LAUREL         CLEAR     41  37  87 NE5       30.13F
MERIDIAN       CLOUDY    36  34  92 N5        30.16S
JACKSON        CLEAR     38  35  89 NE6       30.15F
MONTGOMERY     CLOUDY    51  47  86 NE5       30.15S
TROY           CLOUDY    52  50  93 NE8       30.13S
KINSTON*       NOT AVBL
GENEVA*          N/A     54  50  87 E5        30.13S
ASHFORD*         N/A     52  50  93 NE6       30.11R
DOTHAN         CLOUDY    53  50  89 NE9       30.14F
PANAMA CITY    CLOUDY    54  51  90 N7        30.07F

$$




USA.gov is the U.S. government's official web portal to all federal, state and local government web resources and services.